Theta_e
313 313 313 314 314 315 315 315 316 316 316 317 317 318 318 319 319 320 320 320 321 322 322 322 323 323 324 325 325 325 324 320 317 315 311 313 316 319 322 327 326 324 322 318 311 312 306 309 310 320 318 316 316 312 316 315 317 315 305 301 300 300 301 305 304 308 311 309 312 309 311 311 309 309 311 313 313 314 314 313 319 320 321 324 325 326 326 330
313 313 313 313 314 314 314 315 315 315 316 316 316 317 317 317 318 319 319 320 320 321 321 322 322 322 323 324 324 325 322 319 315 313 311 318 320 325 330 331 329 324 322 313 310 312 306 307 313 317 315 309 317 311 313 310 317 308 305 304 298 302 304 309 309 312 309 308 313 312 311 311 311 312 312 310 311 312 311 313 315 316 320 324 325 325 326 329
312 312 313 313 313 313 313 314 314 314 315 315 316 316 316 316 317 317 318 318 319 320 321 321 321 322 322 323 323 324 319 316 314 309 313 325 325 328 332 333 330 326 319 309 313 312 311 313 316 317 314 309 313 308 311 308 311 310 307 300 300 307 306 308 311 310 312 312 312 311 309 309 310 311 313 310 311 312 310 311 313 313 315 320 325 324 326 328
311 311 311 312 312 312 313 313 314 314 314 314 315 315 315 315 316 316 317 317 318 319 320 320 321 321 322 323 323 323 318 312 305 306 323 326 326 329 333 333 332 329 324 317 320 319 319 317 316 314 312 306 311 311 307 309 306 309 306 301 303 307 303 307 309 311 312 311 312 311 309 308 311 311 311 311 310 310 312 315 314 313 315 319 325 325 325 326
310 310 311 311 311 312 312 313 313 313 313 314 314 314 314 315 315 315 316 317 317 318 319 319 320 320 321 323 321 322 314 301 302 311 321 326 324 330 332 332 327 325 321 318 319 318 317 313 311 312 309 302 310 309 307 310 310 309 304 307 307 306 304 307 309 311 310 308 310 309 309 310 312 311 310 311 309 309 312 316 317 317 318 322 324 325 325 325
310 310 310 310 311 311 311 312 312 312 313 313 313 314 314 314 315 315 315 316 316 317 318 318 319 319 321 322 321 318 310 290 309 316 326 324 321 329 330 329 326 322 319 317 316 316 313 311 308 304 302 304 304 302 308 309 310 301 306 308 308 308 305 309 309 308 308 310 310 309 311 311 311 311 312 312 311 314 316 316 317 317 318 323 327 326 324 325
310 309 310 310 310 310 311 311 311 311 312 312 312 313 314 314 314 314 315 315 316 316 317 318 318 319 320 321 318 313 306 307 311 317 321 321 321 326 327 325 323 320 319 314 314 312 311 309 306 303 303 303 306 304 307 308 309 306 302 307 307 308 307 309 308 306 308 308 309 310 309 310 310 308 310 310 314 316 315 314 315 316 315 323 324 325 326 326
309 309 309 309 309 310 310 310 310 311 311 311 312 312 313 314 314 314 314 315 315 316 317 317 317 318 319 317 310 305 305 304 313 320 323 324 315 316 316 318 321 318 314 312 312 309 312 307 302 308 301 296 302 303 307 306 307 304 303 306 306 306 309 309 308 307 307 308 309 308 308 310 311 310 308 310 314 316 316 314 315 318 320 322 323 324 326 327
309 309 309 309 309 309 309 310 310 310 310 311 312 312 314 313 313 313 313 314 315 315 316 317 317 317 318 315 307 302 301 313 316 318 318 316 315 314 316 314 319 313 312 311 313 312 311 307 309 307 298 300 306 302 306 303 299 306 305 307 306 307 308 308 307 307 307 308 307 307 308 311 309 309 307 311 314 316 315 314 320 321 320 322 322 324 325 326
309 309 309 309 309 309 309 309 309 310 310 311 311 312 313 313 313 313 313 313 314 314 315 316 316 316 315 310 305 294 306 310 312 315 317 316 315 314 313 313 316 315 312 310 311 311 309 309 308 311 310 307 308 303 308 304 300 306 307 307 306 307 306 306 307 308 305 307 307 307 308 309 307 307 306 313 315 316 314 314 318 318 318 321 322 324 325 325
309 309 308 308 308 309 309 309 309 309 310 310 311 312 313 313 313 313 313 313 313 314 315 315 315 314 310 309 299 294 311 311 313 315 314 314 311 310 310 314 315 314 313 312 309 312 312 311 312 312 309 304 307 305 306 306 307 306 306 305 306 306 307 306 305 305 307 307 307 308 307 310 307 306 306 311 313 313 312 313 315 316 317 319 322 323 325 325
308 308 308 308 308 308 309 309 309 309 309 309 310 311 312 312 313 312 313 314 314 313 314 315 314 312 310 305 301 300 316 314 314 315 316 313 314 313 314 317 318 316 314 312 313 313 313 312 312 310 300 309 300 305 305 307 307 305 304 301 304 305 304 307 305 307 306 306 307 307 305 304 305 304 309 312 313 312 311 312 313 315 316 318 321 323 324 325
308 308 308 308 308 308 308 308 309 309 309 309 309 310 311 311 312 313 313 313 313 313 313 314 314 311 305 295 301 311 314 315 315 312 314 318 318 318 318 318 319 319 316 313 313 316 313 314 313 308 309 305 304 297 305 307 305 305 305 302 301 302 301 306 307 305 305 307 308 307 295 299 303 307 310 312 312 312 311 311 312 313 314 317 318 320 322 325
307 307 308 308 308 308 308 308 308 308 309 309 309 309 310 310 311 312 313 313 313 313 313 313 313 310 303 297 307 313 315 317 317 314 313 316 313 315 317 319 318 318 318 316 316 315 314 314 314 310 312 306 302 310 305 303 304 300 303 303 297 296 296 303 305 305 303 307 307 308 295 299 303 307 311 312 312 311 309 310 311 312 313 314 316 317 318 321
307 307 307 307 307 307 307 308 308 308 308 308 309 309 309 310 310 311 312 312 312 312 312 313 311 304 297 300 311 314 317 316 312 312 316 312 311 310 313 318 317 317 317 318 316 314 317 315 312 306 303 310 309 304 301 301 301 302 296 293 298 295 297 299 302 304 301 304 307 305 296 298 303 306 308 308 310 310 309 310 310 311 312 312 314 315 316 317
307 307 307 307 307 307 307 307 307 308 308 308 308 309 309 309 309 310 311 311 313 312 312 307 308 304 298 294 302 317 313 306 307 313 315 314 312 310 314 317 318 317 317 317 317 317 316 315 305 304 305 306 304 301 299 298 298 300 295 295 295 296 295 297 301 304 306 304 304 303 296 299 300 305 306 306 307 308 308 308 310 311 311 312 312 312 313 314
307 307 307 307 307 307 307 307 307 307 307 307 308 308 308 309 310 310 311 311 311 313 310 302 306 306 289 306 313 303 303 310 314 313 313 314 313 313 315 314 314 315 317 318 316 315 314 309 310 305 308 301 302 301 293 291 291 295 298 294 296 293 295 292 298 299 302 302 300 303 299 299 302 302 304 304 305 306 306 307 309 310 311 311 312 312 312 312
306 306 306 306 307 307 307 307 307 307 307 307 308 308 307 308 310 309 309 310 312 310 307 309 303 298 294 304 296 301 307 307 311 314 314 315 313 313 312 310 311 314 313 311 314 307 310 303 307 296 300 299 299 297 289 285 290 292 293 292 293 294 296 294 292 296 298 300 299 301 300 300 302 305 306 306 306 305 305 306 307 308 309 309 310 310 310 311
306 306 306 306 306 306 306 306 306 306 307 307 307 308 308 308 308 309 304 305 301 295 291 293 294 283 285 296 304 305 307 310 312 313 310 311 312 314 314 315 314 311 302 303 303 305 307 303 303 296 292 294 294 295 292 292 294 293 294 293 293 291 292 292 297 297 297 297 296 298 297 299 301 303 305 307 307 305 305 307 307 307 307 308 309 309 310 310
307 306 306 306 306 306 306 306 306 306 307 304 304 304 302 296 296 294 301 301 295 295 296 298 299 298 299 299 302 308 312 311 306 309 312 313 311 309 309 310 309 310 303 297 301 303 306 294 292 291 293 295 296 297 297 295 294 294 296 294 292 292 293 294 295 298 298 296 296 297 299 299 300 302 304 306 306 305 305 304 305 307 307 308 308 308 310 310
306 306 306 306 306 306 306 306 306 306 305 305 303 297 289 290 286 284 292 295 298 299 297 298 299 298 297 302 303 304 300 302 306 306 309 314 312 308 303 305 301 295 298 301 299 305 304 293 292 296 298 297 297 299 298 295 294 292 292 293 292 293 290 294 294 297 298 295 295 297 297 297 299 301 303 304 304 302 303 303 304 305 306 307 308 308 309 310
306 306 306 305 306 306 306 306 306 306 305 304 301 294 296 296 299 300 295 286 294 298 299 299 300 298 302 303 306 307 303 298 299 303 310 311 307 301 302 301 298 294 300 300 300 296 293 290 294 298 300 298 299 299 299 296 293 293 291 292 291 292 295 294 295 296 297 295 293 296 294 295 297 299 301 301 302 304 304 305 305 305 305 306 307 307 308 309
306 306 306 306 305 305 305 307 305 305 304 301 297 297 296 301 303 303 299 291 289 296 296 297 295 296 297 303 304 306 297 294 293 300 304 309 303 302 303 298 296 296 298 298 292 291 288 293 297 300 299 297 296 297 297 297 295 292 291 290 288 292 289 287 292 294 295 295 293 295 293 294 297 299 299 301 301 302 304 305 305 306 305 305 305 307 308 308
306 305 305 305 305 305 304 305 306 303 301 300 298 297 303 305 304 302 295 284 284 292 296 297 298 297 297 296 303 301 295 296 298 296 309 306 300 303 301 298 296 296 294 296 295 292 291 296 300 299 298 296 294 296 295 294 291 294 293 291 289 289 290 290 289 292 294 295 295 294 292 291 294 294 295 299 301 301 301 303 303 304 305 306 307 308 308 307
305 305 305 305 305 305 305 305 301 300 302 300 298 303 304 305 304 302 291 286 287 287 300 297 301 299 300 308 307 297 297 298 299 303 307 306 302 301 297 302 299 292 295 297 296 294 294 298 300 297 296 295 294 293 294 294 290 292 295 294 293 292 290 290 292 289 289 288 293 291 283 284 291 294 294 296 297 298 299 300 300 301 302 303 303 304 306 307
306 305 305 305 305 304 305 299 298 301 299 296 299 303 304 305 304 302 292 279 275 285 294 285 301 292 306 298 302 298 300 291 300 303 307 308 309 301 299 296 298 291 295 295 295 295 295 299 297 296 295 295 294 293 296 296 291 289 290 297 296 293 291 291 290 289 284 281 288 291 283 281 291 290 292 294 294 294 297 297 298 300 300 301 302 302 303 304
306 306 305 305 304 305 299 293 302 300 294 296 302 305 304 304 303 298 285 276 272 287 285 294 294 293 302 299 299 299 281 285 301 304 303 308 303 307 295 293 298 298 299 299 294 288 297 297 295 296 295 294 293 290 295 295 291 288 297 297 297 294 292 291 290 289 286 293 293 290 291 284 284 290 293 295 293 294 296 297 297 299 300 301 302 302 303 304
306 306 306 305 305 303 299 301 298 295 295 299 304 304 304 303 302 296 282 268 267 293 282 291 294 305 299 300 300 292 292 301 289 296 303 307 306 299 296 293 293 294 297 296 282 296 296 294 295 293 293 292 291 293 296 297 292 292 296 297 295 295 293 293 291 289 289 288 284 289 292 284 283 290 294 294 291 292 293 295 298 299 300 301 302 303 303 304
306 306 306 305 304 305 306 301 298 295 301 303 303 304 304 303 299 286 277 266 282 285 298 286 308 298 298 300 295 294 294 296 289 297 302 306 306 302 292 295 296 296 298 296 289 294 294 297 296 296 293 290 294 296 298 297 292 295 297 298 297 297 295 294 291 289 289 286 281 286 290 282 282 290 289 293 292 291 293 296 297 299 300 301 302 302 303 304
307 305 306 305 305 303 301 302 299 303 304 304 304 304 303 299 289 277 271 264 283 275 290 291 293 287 295 290 289 293 290 293 297 299 300 297 300 305 300 304 297 293 291 295 294 296 299 299 301 297 294 295 296 298 299 298 297 298 297 295 294 293 292 293 292 290 288 281 283 288 289 285 279 287 289 289 290 293 295 296 297 300 302 302 303 303 304 303
306 306 306 305 301 302 301 296 300 304 305 305 304 301 297 289 278 272 266 274 282 283 290 286 287 293 286 286 284 291 291 292 293 293 292 298 296 298 297 294 297 291 287 290 289 292 295 297 296 298 300 299 300 296 299 300 299 297 294 292 291 289 292 289 288 290 281 278 285 290 288 288 278 284 289 293 296 296 295 294 296 298 299 301 303 303 302 302
306 306 306 304 305 304 296 295 301 304 304 304 300 294 289 276 280 269 269 286 273 279 281 283 288 287 288 289 287 288 286 289 292 291 290 290 289 288 288 284 289 280 281 283 283 293 289 290 295 297 300 298 296 294 294 297 297 294 293 290 283 281 283 278 283 278 278 278 286 289 289 285 283 287 290 293 294 296 297 296 296 298 299 301 303 303 303 303
306 306 306 305 305 302 302 303 303 303 304 302 296 292 280 272 265 274 274 277 273 281 281 286 286 286 285 285 284 288 291 284 291 289 293 292 289 289 293 291 292 287 279 285 284 285 287 293 293 293 296 299 297 289 288 288 292 292 289 287 282 278 277 274 278 281 281 284 288 287 290 283 288 290 294 294 295 296 297 298 300 300 299 301 302 302 302 305
306 306 304 305 305 303 304 303 303 303 300 298 291 284 278 270 268 280 275 278 276 284 286 283 286 285 285 279 282 287 283 288 289 287 290 287 287 284 288 291 292 289 286 286 282 283 279 280 288 292 288 298 296 294 293 291 291 291 294 290 285 283 279 274 277 275 277 281 285 288 285 280 283 285 295 296 299 299 298 300 300 300 300 300 300 301 302 303
306 306 305 304 304 304 304 304 303 303 299 294 285 279 270 269 274 273 274 277 282 285 283 285 282 282 281 283 286 286 285 282 289 287 286 285 283 285 285 287 291 292 289 282 284 285 283 284 292 295 296 298 294 298 298 295 292 293 294 294 287 284 290 280 283 281 281 279 280 283 283 289 287 295 295 297 298 297 297 298 298 299 300 301 300 301 302 303
304 303 304 300 300 303 303 304 304 301 296 288 280 274 271 274 271 277 277 285 285 281 282 285 284 279 279 281 285 283 289 283 286 285 284 286 287 286 290 290 289 292 287 282 286 280 285 282 294 294 297 296 296 298 297 297 283 290 291 285 288 296 291 285 284 282 283 282 278 288 286 288 294 295 296 298 297 297 297 297 298 298 300 301 301 302 302 303
300 302 297 300 300 303 303 303 303 299 293 285 278 272 278 278 281 279 285 283 284 286 283 275 277 278 277 277 280 283 284 286 285 284 280 287 283 288 288 290 294 293 292 290 285 290 282 283 293 293 289 296 300 299 298 298 297 293 286 289 295 294 293 286 279 282 279 276 279 286 282 284 286 282 295 294 295 296 297 298 298 298 299 299 300 302 302 303
298 298 298 298 302 304 303 303 301 296 289 283 276 279 281 277 283 282 287 285 284 286 281 278 279 282 277 278 278 282 285 281 282 283 280 285 279 292 289 288 293 293 294 295 287 287 289 280 285 291 293 295 299 297 291 298 300 294 291 299 288 280 281 286 283 275 275 275 277 282 285 285 286 286 289 290 293 294 296 298 298 297 299 299 300 302 302 302
298 295 289 298 304 304 303 303 299 291 284 279 278 278 282 280 285 283 286 285 283 282 278 281 276 280 282 279 281 282 284 278 283 281 279 282 278 290 289 291 289 294 295 295 289 289 289 280 283 291 292 290 293 292 283 287 294 292 295 294 297 290 285 282 283 284 284 276 277 277 283 280 290 289 292 292 294 295 296 296 297 298 300 301 301 302 302 302
294 289 288 300 304 304 303 300 292 286 282 277 280 279 284 280 284 286 287 286 283 281 279 280 279 278 279 280 282 279 283 282 281 281 282 284 283 291 287 293 289 292 294 295 290 293 285 287 277 286 290 292 284 286 286 289 286 288 287 288 288 288 292 290 289 284 281 279 279 278 278 282 290 294 294 294 295 295 296 297 298 299 300 302 302 302 302 301
296 287 289 301 303 303 300 292 284 281 280 284 284 281 282 280 284 285 287 289 285 287 283 282 281 278 276 277 278 282 280 282 282 280 281 282 284 279 290 290 292 289 295 292 290 291 285 285 279 283 283 282 286 292 291 293 293 291 288 287 288 286 283 280 278 289 286 282 278 278 276 285 291 295 295 295 296 296 297 298 299 301 301 302 303 302 300 301
289 282 288 301 302 301 292 282 282 285 283 281 280 283 281 287 284 284 285 286 285 283 285 284 283 282 280 279 280 281 280 280 282 280 283 280 285 285 288 287 289 289 288 286 287 292 290 287 284 280 282 284 289 293 294 293 289 291 292 289 292 291 289 284 277 281 285 285 286 284 280 282 294 294 296 296 297 297 298 299 298 300 302 302 303 302 302 302
287 285 299 300 301 297 288 282 284 283 281 284 288 285 287 285 284 285 283 285 281 284 280 281 282 281 283 281 278 276 281 278 280 279 281 283 284 288 291 291 290 289 289 287 290 292 290 284 281 282 285 288 290 290 286 288 290 285 285 288 291 288 289 287 285 287 283 284 282 282 279 283 294 294 296 297 297 298 298 298 298 299 300 300 300 301 302 302
287 287 290 299 300 296 285 278 279 281 282 284 284 284 286 285 284 282 282 284 282 283 281 280 283 285 282 285 281 276 282 275 281 281 280 283 282 290 291 291 291 285 287 287 285 292 283 284 283 278 278 280 283 286 286 285 286 285 286 289 289 291 291 289 287 286 283 284 284 281 276 283 291 296 295 294 294 294 295 295 297 298 300 300 300 301 302 301
287 289 288 292 298 293 283 285 283 281 282 281 282 281 282 282 285 285 284 283 285 284 283 282 283 285 283 285 282 283 281 280 277 284 283 285 283 290 291 292 292 288 291 293 290 289 283 285 281 275 273 271 271 272 275 279 282 286 287 288 289 288 286 285 281 283 279 283 285 281 281 288 293 292 292 292 294 294 295 296 296 298 300 300 301 301 301 301
285 279 286 287 288 288 288 289 285 283 281 281 280 282 283 280 284 286 286 283 285 285 284 284 286 285 283 282 280 279 279 282 278 277 281 280 284 288 290 289 288 289 291 292 290 289 282 283 285 282 279 277 279 282 286 288 286 282 284 285 286 288 289 287 286 282 279 283 282 284 286 287 289 290 290 291 293 293 294 295 294 295 296 298 299 300 300 300
287 281 282 280 286 285 284 286 284 285 281 284 279 282 280 281 283 281 286 281 285 284 284 284 282 280 281 281 279 279 281 280 282 280 279 280 283 286 285 287 287 290 291 290 292 288 281 279 282 283 283 285 286 284 286 288 284 285 285 285 287 288 288 286 282 280 287 283 279 286 288 286 287 291 292 292 293 294 295 296 296 296 298 299 299 298 296 298
281 284 286 286 280 280 281 282 285 284 284 284 281 284 281 281 281 279 283 284 286 286 281 282 283 283 282 281 281 277 279 279 280 277 282 282 282 284 284 287 286 289 289 287 290 287 282 279 282 282 281 284 285 286 286 286 286 286 286 286 286 287 287 284 284 287 287 282 280 286 288 287 289 291 293 294 294 295 295 296 297 297 297 297 297 296 297 297
287 286 286 287 282 284 284 284 284 283 283 284 282 283 280 281 280 282 281 281 282 282 283 277 280 282 282 282 281 278 279 275 275 280 280 280 281 281 280 282 285 289 287 285 286 287 284 281 282 283 281 282 283 284 285 284 284 285 285 286 287 287 287 287 286 288 288 285 287 288 289 289 291 293 294 296 297 297 297 298 297 295 296 297 298 298 298 298
283 282 281 286 285 283 283 284 283 283 281 284 280 282 282 282 281 283 284 282 278 280 284 280 281 283 283 282 282 279 280 281 281 278 283 282 281 282 281 282 283 285 286 283 285 284 283 279 284 283 280 280 283 284 284 284 282 281 284 285 286 286 287 288 288 288 288 287 287 287 286 286 291 295 296 297 298 297 297 296 296 297 298 298 298 298 298 298
289 290 288 282 280 282 283 284 283 282 280 282 280 282 283 283 282 285 284 286 282 280 282 280 282 282 283 283 282 281 284 284 283 283 284 284 280 285 281 282 286 281 283 282 284 282 284 281 284 281 277 277 281 282 282 282 282 280 280 282 284 283 281 283 284 287 287 284 286 285 284 284 291 295 296 296 296 296 294 295 296 297 298 298 298 299 299 299
291 293 291 285 278 284 281 283 283 282 278 283 283 283 282 283 285 286 281 286 286 286 285 284 284 282 281 281 280 283 286 286 285 287 286 286 287 288 288 287 286 284 282 283 285 281 282 280 279 279 276 275 280 282 281 281 279 276 277 281 283 283 284 286 287 288 288 289 285 283 284 291 293 295 293 294 295 295 295 295 296 297 299 299 298 298 299 299
Wind_Speed
14 14 14 14 14 15 15 15 15 16 16 16 17 17 17 17 16 15 15 15 14 14 15 14 14 14 15 16 15 15 14 12 13 9 9 9 7 9 13 12 12 10 8 5 5 5 2 2 3 1 3 4 2 4 2 3 2 4 7 8 9 8 11 8 11 10 3 5 7 8 9 9 8 5 4 3 4 4 4 7 3 2 5 2 3 2 4 9
15 15 15 15 14 15 15 15 15 16 16 15 16 16 16 17 17 16 15 15 14 14 15 15 14 14 15 15 15 14 11 12 15 13 13 10 8 7 8 9 7 4 3 4 2 2 4 1 1 2 4 5 2 2 2 3 4 8 5 7 11 9 6 4 6 6 3 6 4 6 5 9 6 9 6 8 8 9 7 7 6 7 8 5 3 4 7 10
15 15 15 15 15 14 15 15 16 16 16 16 16 16 15 15 16 17 16 15 15 14 14 15 15 14 15 15 15 13 8 12 13 12 1 3 2 4 6 4 4 3 5 3 2 2 2 2 1 3 3 4 3 4 4 4 6 8 5 10 11 4 5 4 3 6 4 4 3 5 3 6 1 4 6 8 9 9 12 9 8 10 11 10 7 6 9 10
15 15 15 15 15 15 15 15 16 16 16 16 16 16 16 15 15 16 16 16 15 15 14 14 14 14 13 13 12 9 9 10 8 3 4 2 2 5 6 5 3 3 2 2 1 1 2 2 0 3 3 6 3 2 6 5 6 4 8 10 6 4 5 8 6 6 3 2 3 2 3 5 3 3 6 6 7 10 11 11 11 13 12 10 9 9 9 10
15 15 15 15 15 16 16 15 15 16 16 17 17 17 16 16 16 16 16 16 16 15 15 13 13 13 12 11 9 7 8 8 2 1 3 2 5 6 7 6 5 2 1 2 3 2 1 2 3 2 3 5 3 4 8 4 2 1 11 6 2 2 8 1 4 1 2 1 3 1 6 5 4 2 7 8 12 9 11 12 11 8 5 8 10 10 9 11
15 16 15 15 15 15 15 16 15 15 16 16 17 17 17 16 16 16 17 16 16 15 15 14 13 12 12 9 6 4 3 6 2 1 3 2 5 6 9 5 4 3 4 4 1 1 4 3 5 4 4 4 7 8 4 4 3 9 9 7 2 2 6 4 1 0 3 4 5 6 2 2 6 4 5 8 13 0 3 4 1 5 2 2 7 11 11 12
14 15 15 15 15 15 15 16 16 16 16 16 17 17 17 16 16 16 17 18 17 16 15 14 13 13 11 10 3 2 7 10 2 2 4 1 4 7 9 4 4 4 0 3 2 3 2 3 5 4 4 3 5 8 3 5 4 8 8 3 4 3 8 2 2 1 3 3 5 2 2 5 3 10 3 7 10 4 3 2 3 2 1 4 8 11 12 14
15 14 14 15 15 16 15 15 16 16 16 16 16 17 17 16 16 16 15 16 17 17 16 15 13 12 10 7 6 7 10 12 11 1 6 5 1 2 3 1 2 3 2 2 3 3 3 5 6 3 5 6 2 8 3 4 6 11 12 6 1 2 5 2 1 1 2 4 2 2 5 8 6 4 2 8 10 9 5 1 1 0 2 5 7 10 10 10
15 15 14 14 15 15 16 16 16 16 16 16 16 16 16 16 16 16 16 15 16 17 17 16 14 11 6 4 7 9 15 8 9 13 10 9 6 4 2 7 3 3 2 0 2 1 3 4 2 6 3 6 3 7 3 7 9 12 13 2 1 4 1 2 4 4 3 2 1 4 10 8 2 2 10 10 10 7 2 2 2 2 3 6 8 9 11 10
15 15 15 15 14 15 15 16 16 16 16 17 17 17 17 16 15 16 17 16 15 16 16 17 15 11 7 4 6 14 2 2 3 3 5 8 7 5 3 7 5 4 3 2 2 3 6 2 4 4 3 2 4 5 3 9 1 2 5 7 9 4 2 2 6 4 1 4 3 8 9 9 4 5 10 9 14 10 5 7 4 5 7 7 6 7 9 10
15 15 15 15 15 14 15 15 15 16 17 17 17 16 16 16 16 15 16 16 16 14 14 16 16 13 9 5 11 16 3 2 3 3 4 1 2 1 2 2 6 5 3 2 4 5 3 2 2 2 2 3 6 5 5 3 3 1 2 1 7 6 6 3 3 4 2 6 6 7 11 10 4 4 13 5 5 2 7 9 8 7 8 7 8 7 7 8
15 15 15 14 15 15 15 16 15 16 16 17 17 17 16 16 16 16 16 16 16 14 14 12 14 8 8 11 13 12 6 2 1 2 2 2 2 3 1 2 5 4 4 3 4 4 3 2 4 5 1 3 5 3 6 1 3 0 2 6 4 4 10 11 11 6 5 6 4 2 9 16 11 16 13 13 3 3 4 8 9 10 9 9 8 7 6 8
15 15 15 14 14 15 15 15 16 15 16 16 17 17 16 16 16 16 16 15 14 14 14 13 10 6 8 13 14 11 12 15 5 2 1 2 2 2 3 2 3 2 3 3 1 3 3 2 4 6 1 3 1 3 3 1 2 2 3 6 5 7 10 12 7 2 6 6 7 5 12 16 17 19 16 10 12 10 10 11 8 7 9 9 8 7 8 7
15 14 14 14 14 14 15 16 15 16 16 16 16 16 16 16 15 15 15 15 15 15 13 12 7 5 8 11 3 2 5 4 4 10 9 3 4 2 3 4 2 1 1 1 1 1 5 0 2 2 1 4 1 2 3 3 2 7 4 2 8 7 7 7 7 9 10 7 9 8 15 12 8 6 12 11 14 15 16 17 15 10 9 8 8 8 9 10
15 14 14 14 14 14 14 15 16 15 15 16 16 16 16 16 15 15 15 16 15 14 11 9 5 6 8 9 4 12 16 12 11 9 8 6 7 7 1 1 2 3 2 2 1 1 2 2 2 5 5 1 3 3 3 4 2 4 4 9 8 8 3 5 3 10 15 4 10 11 15 16 14 10 5 7 9 12 16 17 16 15 11 11 10 10 10 10
15 14 14 14 14 14 14 14 15 16 15 16 16 15 15 15 15 15 14 13 16 15 6 6 5 8 10 14 4 4 4 10 14 13 10 9 8 9 1 1 2 3 1 3 1 2 2 4 5 3 3 2 6 5 4 4 6 5 10 3 7 7 7 4 9 8 13 2 7 18 10 1 10 10 2 4 8 10 13 15 15 15 14 11 10 10 9 9
14 14 13 14 14 14 14 14 14 15 16 15 16 15 14 15 15 14 13 14 7 4 4 4 3 4 7 2 2 7 7 8 3 7 11 10 10 8 4 6 2 2 2 4 3 4 3 5 3 1 3 7 7 7 6 9 8 8 7 7 4 7 8 8 4 2 4 7 9 15 16 18 9 4 3 4 6 8 10 12 12 12 10 10 8 8 9 9
13 13 13 13 13 14 14 14 14 15 15 15 14 14 14 16 18 16 11 6 2 2 3 3 3 7 12 10 11 2 3 6 6 4 6 3 12 12 10 8 2 4 5 3 2 6 5 5 6 6 5 7 8 11 12 13 13 9 8 8 8 7 8 6 4 4 4 8 13 12 17 17 17 15 10 6 7 7 9 11 11 9 10 11 11 10 11 10
14 13 12 13 13 13 13 14 14 14 14 13 11 13 15 16 9 5 6 4 4 4 4 5 6 11 0 1 5 7 3 1 4 6 7 6 4 9 9 3 5 8 7 8 6 10 6 4 6 7 11 12 14 16 15 2 6 12 13 9 7 9 9 11 6 2 5 7 10 14 13 14 19 20 16 15 9 9 10 11 9 9 10 11 11 11 10 9
14 13 12 12 13 13 13 13 13 13 9 6 6 6 4 3 2 3 5 6 9 12 10 5 8 10 14 4 3 3 3 3 5 5 2 4 7 9 11 9 4 8 11 10 8 12 8 9 10 14 14 15 16 17 13 3 3 1 4 6 6 8 5 1 2 2 1 3 11 13 14 14 16 17 16 11 8 7 9 11 13 14 13 12 12 13 13 13
13 13 12 12 12 13 13 13 13 8 2 3 5 5 4 5 7 7 4 6 9 11 13 16 11 12 13 4 2 8 8 0 5 6 3 2 4 13 11 10 12 13 14 13 10 5 11 12 18 18 11 10 12 11 7 5 1 4 7 9 9 7 8 3 3 3 2 4 4 3 8 13 16 18 19 12 9 11 11 13 15 16 16 13 14 14 15 15
13 13 12 11 12 12 12 13 8 3 1 2 4 7 6 6 2 3 3 8 9 12 14 16 14 15 11 13 5 2 7 7 6 8 3 8 8 13 9 14 13 16 12 11 8 7 12 17 19 15 8 6 6 10 11 12 9 5 7 7 8 9 3 1 3 1 2 2 10 7 11 13 14 16 19 17 13 10 13 15 16 15 15 13 13 14 15 14
14 12 12 11 11 12 12 7 2 2 1 3 5 7 8 1 5 3 2 6 13 9 12 13 14 15 17 10 8 2 11 12 11 8 8 8 8 15 10 12 14 14 14 13 14 13 14 16 18 10 9 8 8 12 11 10 9 9 9 8 10 2 6 7 4 3 5 6 4 1 9 11 13 16 19 21 17 13 14 16 16 13 14 16 17 15 11 12
14 12 11 11 11 12 9 2 5 2 4 6 7 9 1 3 4 1 5 5 8 11 12 13 15 14 13 11 8 14 14 7 9 13 8 9 12 8 11 14 15 14 14 17 20 17 16 2 4 12 12 12 12 12 13 10 12 12 12 10 8 5 4 3 2 2 1 7 6 9 11 14 14 15 14 17 18 15 15 13 14 14 14 16 14 11 14 18
13 13 11 11 10 10 3 5 6 4 1 3 6 6 6 4 5 3 3 5 5 8 7 13 7 8 12 7 8 11 12 13 13 6 5 11 12 6 11 7 10 15 16 19 18 18 20 13 4 11 12 14 13 12 14 11 9 9 13 13 8 3 4 2 1 2 3 4 6 5 8 12 10 18 18 13 8 10 8 11 13 15 14 11 15 18 18 16
14 13 11 10 10 2 2 5 1 1 1 4 3 4 4 3 3 3 1 3 8 5 6 6 10 9 11 9 10 9 6 14 13 13 6 8 10 11 5 10 7 14 21 18 17 11 13 9 10 10 12 12 14 13 13 12 10 9 7 14 7 5 3 2 2 2 4 7 2 3 9 12 4 7 9 8 8 8 4 7 10 12 12 13 15 15 15 15
14 14 12 10 10 4 2 4 2 1 5 2 1 4 3 4 5 4 3 4 8 8 11 7 10 3 1 11 16 15 12 9 11 11 13 10 12 4 10 11 7 6 8 6 2 10 7 14 12 13 12 12 11 14 13 16 10 10 5 11 12 11 11 10 8 8 6 2 2 4 6 10 14 11 7 7 5 6 7 7 10 10 10 11 12 13 13 13
15 13 13 12 10 4 4 1 2 5 6 2 2 2 2 3 4 0 1 5 5 5 2 1 5 5 3 9 17 16 6 5 10 12 17 12 10 3 7 12 15 14 11 8 18 3 15 14 18 16 14 12 16 12 11 15 10 3 7 10 12 12 12 10 8 7 4 3 10 10 9 7 12 5 9 9 13 16 15 12 10 11 12 11 12 13 13 14
15 13 13 12 9 4 5 4 3 8 1 2 1 2 3 2 1 2 2 7 5 1 6 2 3 2 3 10 16 17 4 3 6 5 12 10 16 6 11 16 13 14 11 13 14 6 2 15 19 19 16 16 14 12 15 16 13 3 6 5 4 5 5 8 7 6 3 5 11 12 13 10 17 7 7 7 10 14 10 10 13 14 12 13 12 12 14 12
16 14 13 7 9 3 1 1 7 0 3 3 2 3 4 2 1 1 3 7 1 1 4 0 2 5 5 9 11 16 14 2 3 2 13 12 14 8 4 2 8 10 10 8 14 16 4 5 6 13 16 16 14 12 15 17 6 10 8 9 6 5 4 4 5 6 3 10 16 13 15 11 14 8 10 10 9 7 6 8 9 10 10 9 9 12 9 8
15 14 12 8 5 3 4 5 5 4 4 3 3 1 1 1 3 2 10 2 4 2 3 1 5 5 4 12 9 13 15 11 3 3 7 7 11 14 5 5 3 3 1 8 9 12 13 4 8 4 8 5 8 6 4 10 12 13 6 7 7 4 5 4 3 6 8 11 12 11 14 14 13 6 3 7 7 11 11 11 12 12 12 11 9 8 8 7
16 16 12 8 3 5 6 7 4 6 4 3 1 0 1 3 3 9 5 2 2 1 1 2 3 2 5 12 5 10 11 12 5 6 8 10 10 13 14 14 10 10 12 10 12 9 14 12 4 1 2 12 11 10 7 9 10 12 9 10 11 7 5 7 6 10 13 12 2 10 11 10 18 21 8 2 7 8 7 8 11 11 10 9 9 7 3 4
16 14 12 7 7 5 8 2 5 7 6 5 3 1 2 2 8 4 6 1 3 4 1 4 4 5 3 3 7 7 9 11 9 5 9 10 11 12 14 18 13 11 7 7 12 9 7 10 11 9 5 12 15 14 9 9 13 15 15 14 13 11 11 11 10 6 6 10 8 4 3 11 8 18 17 22 16 10 12 12 9 10 9 5 2 1 2 2
14 10 6 5 8 9 4 6 6 11 9 5 4 1 2 5 7 3 7 8 6 0 2 2 3 3 1 2 4 3 4 7 6 6 10 6 9 11 12 17 17 13 7 5 11 11 11 9 13 14 9 15 20 17 15 9 16 17 13 14 14 11 8 10 8 11 11 4 5 10 3 6 8 8 6 6 3 7 12 8 7 7 7 7 5 5 7 7
14 9 6 5 7 8 8 8 9 12 7 6 5 6 7 11 4 2 2 1 3 3 9 2 4 3 4 3 1 4 7 4 8 7 9 9 10 10 10 11 18 15 9 11 7 6 18 14 6 21 8 17 17 16 14 13 12 15 14 12 15 17 7 13 5 7 5 2 3 8 9 4 12 8 4 4 1 1 1 5 5 10 10 6 6 7 8 7
9 4 4 5 7 9 10 7 10 12 8 7 7 8 13 6 2 2 3 1 2 2 3 8 6 4 6 4 1 4 6 6 5 7 7 12 13 13 13 9 13 19 13 14 5 11 5 15 13 15 8 11 19 17 15 18 12 10 11 15 13 1 14 7 2 2 2 2 10 5 7 14 10 18 12 8 5 5 3 4 5 11 12 9 9 11 11 7
7 5 4 5 10 8 11 10 10 11 8 8 6 11 8 7 5 3 3 2 3 2 3 5 2 3 0 1 1 2 4 4 3 3 3 7 11 13 13 13 10 17 20 13 11 8 7 7 10 13 16 12 13 15 16 24 10 10 13 13 3 2 2 8 12 4 5 12 7 12 17 14 10 12 9 19 13 11 7 7 8 7 6 8 11 11 10 6
9 5 8 11 10 10 12 12 13 11 8 9 12 17 4 7 3 11 2 2 4 1 0 1 4 1 3 2 2 2 4 4 2 6 4 7 4 10 17 12 14 13 18 19 14 5 6 14 3 8 13 14 11 8 7 12 11 9 10 14 12 6 8 11 7 16 8 13 9 15 16 18 14 14 4 8 14 14 15 14 7 7 8 10 10 12 7 4
4 3 5 8 7 13 13 14 13 11 8 10 12 15 6 8 4 4 6 7 0 0 4 3 4 1 2 4 1 2 0 2 1 3 4 1 4 7 15 12 10 16 17 19 14 6 1 11 7 10 12 2 4 10 12 11 14 5 7 11 4 3 9 14 14 4 10 17 8 15 14 16 13 14 13 8 9 7 7 10 12 14 13 10 9 7 6 5
5 2 4 3 1 9 12 14 8 8 6 12 12 12 2 3 9 10 5 6 6 5 5 8 4 5 3 3 2 5 0 2 3 3 2 3 7 7 5 6 10 11 18 18 14 14 12 3 15 4 3 11 8 5 13 13 15 10 3 8 7 5 4 6 10 14 10 10 14 10 13 10 10 8 13 13 13 10 11 9 10 12 14 12 8 7 4 5
3 2 3 2 4 8 9 6 4 9 9 4 3 5 4 5 3 5 13 10 4 1 6 5 6 6 1 1 4 3 4 4 3 4 2 3 3 6 6 6 5 12 9 13 15 9 6 10 12 6 6 10 5 11 14 16 15 14 11 11 12 13 10 12 12 9 9 12 11 12 17 7 3 4 8 12 13 14 16 14 9 10 12 12 9 5 5 6
4 6 4 4 10 14 11 6 5 4 3 10 11 5 4 5 7 6 1 2 6 7 1 6 10 10 4 4 4 2 2 4 5 4 4 6 4 8 2 4 3 7 6 7 13 15 11 3 12 16 10 9 12 6 1 7 4 9 12 13 17 13 12 12 16 12 7 13 7 11 10 14 3 5 6 8 10 11 12 10 12 9 10 10 6 4 6 8
4 8 0 10 14 15 9 8 6 6 8 4 3 2 4 5 5 5 10 7 5 5 2 4 9 7 11 7 1 3 4 7 6 8 6 6 11 13 4 4 3 3 4 8 11 8 7 6 7 12 9 10 5 3 2 5 5 8 9 6 9 16 17 15 15 12 13 10 12 12 15 15 4 3 5 8 4 4 1 5 9 8 5 5 6 7 9 7
5 8 5 7 16 11 8 7 7 11 11 3 4 6 5 6 6 4 10 10 7 3 8 4 1 11 9 4 3 4 4 4 7 13 9 8 10 7 10 8 9 5 6 4 5 5 7 4 10 13 9 8 9 5 6 2 1 5 6 11 12 10 14 8 4 2 12 13 16 12 19 10 4 10 3 4 4 6 7 6 8 9 8 7 8 8 5 4
6 4 5 3 4 9 9 3 5 4 10 12 10 12 8 4 7 13 10 10 9 7 3 9 11 3 5 5 7 5 4 10 7 6 9 4 5 4 4 7 9 7 10 6 10 3 6 5 11 13 14 15 12 13 13 14 13 7 8 7 7 13 14 8 10 5 11 10 17 16 13 13 5 4 5 5 6 6 7 8 7 8 7 7 7 6 5 4
2 7 1 2 1 3 5 3 2 3 5 8 10 9 6 9 5 7 11 12 9 8 12 9 1 7 8 3 6 5 7 5 9 3 5 6 6 2 4 7 8 7 10 15 7 4 3 4 11 12 15 17 14 9 2 9 3 10 5 9 14 13 15 13 6 10 10 3 12 14 16 16 20 10 7 7 8 11 11 8 8 9 10 8 4 4 4 4
2 3 3 4 0 5 6 1 4 2 5 1 6 3 10 12 5 0 11 6 12 15 11 11 5 6 6 9 11 12 13 11 12 13 14 12 5 3 2 6 6 9 9 7 8 3 2 6 8 14 17 16 17 13 7 9 12 13 16 18 16 16 15 15 14 11 5 12 19 10 17 18 21 20 12 10 10 9 6 8 9 7 6 5 5 4 4 4
3 0 1 1 2 3 4 6 5 10 11 9 6 1 5 7 8 8 4 12 4 11 10 7 12 15 14 14 11 11 11 13 11 16 12 8 10 11 10 3 4 6 8 2 6 7 5 8 10 9 14 14 16 15 14 10 11 11 12 17 18 19 17 19 19 20 18 16 13 14 20 21 21 19 17 11 11 9 10 10 8 4 1 2 4 6 7 8
4 2 3 1 3 2 5 8 8 10 14 11 7 5 12 10 13 11 7 3 8 7 15 12 14 16 17 17 13 16 15 10 12 10 8 9 11 9 7 5 6 7 5 4 5 5 4 10 12 9 12 12 12 11 13 15 14 15 15 15 18 18 20 21 17 21 23 19 15 18 15 16 14 18 15 14 9 10 7 5 2 2 6 8 8 8 9 8
3 3 3 0 4 9 9 7 7 8 10 10 8 7 10 14 17 14 7 7 7 10 12 19 18 12 15 15 17 20 22 19 16 6 6 11 8 7 9 10 3 2 3 6 3 3 7 10 12 8 10 15 14 12 10 11 10 12 13 17 19 18 17 16 16 18 16 18 17 19 20 19 15 17 17 12 8 4 10 8 8 8 8 9 10 10 9 9
3 3 4 7 8 6 5 6 7 7 9 7 9 9 9 16 16 13 13 10 15 9 12 22 20 15 13 14 19 25 25 15 17 19 13 8 11 7 7 1 5 2 1 3 2 2 7 6 5 2 8 11 9 10 13 13 13 15 15 12 12 13 13 11 15 16 18 19 18 22 23 17 13 17 18 21 18 12 11 10 10 10 12 12 12 10 9 9
4 4 4 4 6 5 9 7 7 6 8 7 9 12 9 13 14 11 13 10 16 15 14 16 14 11 12 15 21 24 23 12 17 14 10 14 14 9 7 6 6 5 4 7 4 2 3 3 6 5 11 13 14 9 12 11 11 14 14 14 15 16 15 16 14 14 17 18 19 19 17 14 18 16 18 21 21 18 11 13 14 15 13 10 12 12 10 11
Wind_Direction
345 345 344 342 340 338 338 336 333 332 331 331 329 328 326 327 327 328 329 330 330 332 330 330 332 333 334 336 336 332 332 319 315 306 294 258 271 274 279 281 276 276 282 290 292 309 303 347 232 349 227 238 135 226 113 213 164 196 218 226 228 227 202 189 206 193 3 240 170 179 195 206 188 163 177 172 186 230 125 208 165 253 231 237 89 77 101 138
345 344 343 341 339 338 335 335 333 331 329 328 328 326 324 324 324 324 325 325 326 328 329 328 330 333 334 336 336 339 335 318 306 297 266 276 265 278 304 282 267 266 222 247 246 11 314 23 11 260 207 215 88 227 168 183 199 209 220 227 239 207 212 190 226 214 223 243 187 174 190 214 204 169 165 197 190 193 202 212 202 215 217 177 173 142 151 152
344 343 341 339 338 335 335 334 333 332 330 328 326 325 323 322 321 320 319 320 322 323 326 326 330 331 335 336 337 340 332 314 307 280 164 133 201 312 326 325 244 191 205 217 210 263 325 0 354 253 203 235 168 205 210 172 188 221 231 229 237 204 219 220 235 226 237 341 204 190 177 226 142 201 129 219 190 190 208 198 197 219 214 199 157 150 156 166
343 341 339 339 336 334 333 334 333 331 329 328 324 323 322 320 318 317 315 316 317 319 321 325 326 329 334 336 350 332 319 314 277 156 145 251 31 13 22 36 86 160 195 271 227 110 111 144 188 240 179 230 141 244 199 178 208 151 223 235 249 165 224 226 205 234 223 289 288 205 101 218 191 190 189 193 189 204 215 215 205 208 215 187 158 155 162 173
340 340 339 337 338 336 332 331 330 330 328 326 323 320 319 318 316 313 313 311 313 315 318 318 323 324 333 338 343 345 333 295 325 88 155 158 44 31 54 77 87 105 128 119 160 120 191 178 176 164 214 210 185 197 232 175 280 130 224 252 39 105 231 208 205 172 230 6 269 146 200 208 98 198 219 204 209 205 208 215 219 229 224 163 162 164 166 178
340 339 339 336 335 335 333 329 328 328 327 323 322 319 316 316 316 313 310 309 308 309 312 315 317 321 330 340 333 348 350 258 80 89 183 109 38 60 70 72 93 104 137 142 203 158 201 174 190 179 191 215 200 209 167 212 151 232 226 252 239 234 255 42 317 209 205 197 212 211 230 60 202 210 213 232 227 142 82 43 259 251 59 69 156 156 174 182
341 338 337 336 334 333 333 330 325 325 324 321 318 319 316 313 312 313 311 308 307 308 307 310 311 316 329 318 291 277 248 268 299 58 240 296 63 70 77 85 99 92 296 152 166 194 212 189 216 186 183 216 229 229 183 196 196 244 244 116 222 172 236 52 4 39 221 228 217 1 22 237 176 228 103 231 239 253 104 45 37 26 87 159 163 180 183 187
336 337 335 334 334 332 331 329 326 323 322 320 316 317 316 313 311 310 310 308 307 306 309 304 306 310 330 321 321 265 249 246 270 193 232 229 101 29 45 331 122 134 204 255 193 201 187 203 204 140 215 218 125 201 173 220 191 226 242 237 236 221 245 259 308 259 220 248 351 269 251 230 227 267 41 242 242 234 218 190 278 160 156 177 191 188 195 194
334 332 335 333 332 333 330 328 326 324 320 318 319 316 316 314 312 311 310 310 307 305 304 305 300 305 324 300 272 291 260 262 237 261 249 268 268 253 273 282 178 183 138 147 284 243 216 205 225 205 261 213 162 212 175 210 231 220 238 208 177 236 260 240 240 233 232 261 211 242 242 247 213 37 257 249 247 236 148 192 164 175 191 196 205 200 197 201
331 330 330 332 330 329 329 327 325 323 321 318 318 320 316 315 316 314 311 310 307 304 303 300 298 299 297 277 260 251 269 10 9 326 256 254 274 296 297 262 201 169 170 187 204 192 216 199 222 173 327 251 175 215 116 213 258 15 252 248 244 247 288 137 242 216 169 246 180 239 247 244 111 190 250 202 234 241 195 238 206 224 233 218 213 209 208 210
328 327 327 328 328 327 325 325 324 322 321 318 317 318 317 316 314 312 310 311 308 307 305 302 307 298 279 254 245 248 62 19 17 3 354 215 187 251 293 207 206 199 210 139 235 224 239 263 187 139 282 245 173 200 207 197 6 291 357 259 238 247 247 241 246 222 187 235 199 242 262 263 173 222 240 220 179 220 227 231 223 226 237 232 225 216 211 219
324 324 324 324 325 324 323 322 322 321 318 318 316 316 315 316 315 311 311 310 306 304 304 308 310 305 279 261 242 235 357 354 175 11 3 317 351 331 312 228 215 219 199 219 228 218 233 243 164 209 242 139 203 110 220 168 240 128 237 252 224 230 244 221 232 212 186 232 154 153 278 254 213 237 233 228 209 165 213 233 227 224 231 234 230 225 216 220
321 321 321 321 322 322 320 320 320 319 318 317 317 316 317 318 315 312 307 308 305 305 306 308 311 289 284 261 254 250 257 269 289 216 266 90 111 66 8 345 227 233 251 250 295 210 181 183 218 222 330 253 182 227 71 248 189 196 234 254 250 239 247 222 197 141 197 225 145 156 253 240 231 229 232 196 226 233 243 241 226 219 227 232 228 230 235 227
317 318 318 319 320 320 320 318 318 317 317 317 317 315 315 316 314 309 307 300 298 298 302 307 305 281 251 251 275 0 289 274 263 272 260 129 258 357 0 40 45 355 327 264 43 11 163 189 287 270 33 246 200 128 205 115 166 219 189 207 241 230 240 133 191 171 219 178 172 189 250 252 247 211 220 199 211 224 234 240 238 222 219 225 227 231 235 235
313 314 314 316 317 318 319 318 317 317 317 317 316 315 314 315 314 309 307 305 301 293 299 311 274 278 249 267 253 241 252 258 251 245 249 241 242 240 217 36 67 29 64 60 88 84 157 167 204 220 217 107 280 227 201 202 154 200 179 229 215 225 192 137 150 189 212 162 195 186 251 254 252 247 169 171 207 225 236 239 238 238 223 219 227 231 234 238
310 310 311 312 316 317 317 318 318 318 318 317 314 314 316 312 309 304 297 294 296 294 302 279 243 230 271 270 237 41 204 215 235 220 233 222 233 242 126 78 117 83 187 83 89 136 136 193 205 237 217 156 226 216 199 203 213 200 220 212 197 207 240 282 187 209 225 194 197 200 237 141 242 244 266 124 194 207 231 238 240 240 240 232 229 232 238 247
304 307 307 311 312 315 316 317 318 317 318 318 317 313 311 301 295 294 289 286 293 263 247 267 310 235 250 107 50 249 229 226 21 198 214 217 219 216 174 224 223 103 128 113 119 161 144 187 163 179 251 230 203 203 206 224 215 197 202 236 191 207 210 234 111 231 220 226 211 215 238 245 253 128 136 126 195 211 231 240 238 242 247 247 244 241 240 240
302 303 305 308 310 312 316 316 317 318 318 321 320 318 308 299 291 287 280 260 216 229 265 245 292 312 255 248 260 218 234 228 195 209 203 166 213 207 206 215 146 195 169 179 166 185 180 196 189 226 185 206 196 198 205 215 204 176 174 209 215 230 230 234 192 131 189 198 235 219 232 249 257 256 236 211 170 199 227 242 247 244 250 256 252 246 245 244
306 304 306 307 309 310 313 316 315 318 332 342 317 303 291 279 268 252 264 246 241 245 224 195 178 205 299 125 315 254 170 13 348 202 198 173 179 208 205 178 161 178 216 211 208 180 177 206 196 218 218 200 203 205 210 239 148 197 188 195 210 201 211 224 214 86 219 203 217 228 234 238 250 258 251 247 214 220 240 250 254 245 244 247 251 254 248 244
309 307 304 306 307 310 312 313 315 327 12 325 336 330 306 312 264 264 210 219 227 232 244 266 201 248 283 228 13 291 257 253 240 217 222 156 144 177 201 191 185 213 217 218 182 193 167 200 203 210 216 206 203 207 216 32 345 282 187 218 229 224 227 96 268 145 178 260 236 233 238 250 258 263 261 246 216 217 237 243 248 250 245 240 241 248 255 255
312 309 306 306 308 310 309 311 316 355 3 338 320 336 315 322 329 309 345 283 265 265 258 257 235 237 243 304 336 356 1 340 261 251 203 164 197 161 197 190 203 219 215 215 216 169 200 218 227 222 223 212 201 204 228 251 2 214 208 219 227 211 243 149 185 132 184 247 257 208 256 247 253 264 267 256 203 226 227 235 240 248 248 248 246 246 250 256
312 308 306 305 306 307 308 310 341 70 141 328 320 297 294 269 293 24 356 291 264 233 242 251 256 260 258 258 277 336 287 287 264 245 215 188 189 202 179 197 200 218 204 206 203 203 207 220 230 223 210 163 161 196 217 223 219 220 230 220 234 229 221 347 230 187 180 228 262 262 263 260 252 257 267 265 247 234 237 236 241 246 254 253 250 244 244 247
311 306 303 303 302 304 310 342 34 344 302 291 285 275 266 207 105 126 147 244 272 247 240 238 249 248 252 246 228 133 250 245 261 240 208 188 205 216 182 197 210 215 216 187 202 206 224 233 234 222 196 157 183 202 206 215 229 222 220 214 222 187 163 232 173 196 231 226 284 41 280 269 261 256 261 267 262 248 234 239 245 245 254 258 257 254 251 244
308 305 300 297 302 301 321 45 322 287 281 264 258 252 49 124 144 144 289 277 288 265 204 224 226 229 223 222 186 209 224 239 224 248 181 193 214 204 227 202 208 214 216 204 212 217 221 17 227 186 185 189 205 196 198 203 220 222 227 228 227 149 198 307 85 213 294 240 282 285 276 265 238 241 244 250 249 242 237 237 241 244 243 253 268 279 260 256
301 303 301 297 293 314 36 325 296 303 314 264 265 288 299 259 273 255 266 279 247 267 209 238 202 225 220 188 148 196 214 238 232 268 190 189 214 207 226 219 213 220 214 212 217 227 235 215 142 180 186 194 204 207 204 201 226 226 223 227 235 144 182 109 40 347 263 260 180 220 296 268 229 213 228 237 230 224 232 225 233 242 242 243 255 258 261 256
304 295 294 295 296 75 53 299 295 63 279 268 292 328 303 290 283 326 255 247 277 227 83 267 158 239 148 184 157 196 190 233 205 223 180 214 214 222 224 229 202 223 216 211 215 229 232 188 149 182 192 204 205 211 199 196 225 223 229 201 204 178 156 112 77 109 248 258 80 230 233 277 144 220 197 223 240 250 200 210 232 238 240 234 237 245 253 260
296 296 287 285 293 111 304 278 87 228 294 288 21 322 333 119 122 133 264 263 272 191 208 163 170 310 259 173 169 138 219 221 201 194 211 197 203 47 235 227 214 250 230 207 195 228 189 195 178 180 194 205 214 225 205 192 210 234 122 167 185 187 199 211 207 209 242 354 248 212 253 273 277 248 184 152 209 231 216 205 220 228 233 236 235 240 245 248
297 290 290 280 272 210 251 135 170 264 259 345 327 345 87 119 101 330 211 315 284 58 41 165 213 20 283 170 164 182 210 99 161 208 206 184 181 215 232 233 225 223 206 181 224 116 198 192 201 190 197 213 224 223 190 193 205 250 129 161 181 184 204 205 203 220 254 334 268 225 187 269 258 254 172 205 237 238 234 226 218 216 225 236 236 237 241 245
299 289 283 282 302 188 158 197 225 256 132 187 4 121 98 142 226 278 284 258 262 82 238 75 230 132 107 169 182 209 184 134 184 186 183 171 192 177 210 227 243 244 229 212 229 210 5 203 196 193 194 215 218 215 167 179 209 109 108 58 120 167 185 190 196 205 202 211 248 233 173 237 271 204 170 182 229 236 224 219 237 246 234 221 232 241 246 248
304 290 279 264 102 132 134 110 234 97 134 126 153 98 122 159 144 238 240 257 40 257 150 162 103 227 166 156 204 215 226 244 335 93 162 183 192 207 255 354 232 240 252 252 239 246 243 352 201 189 208 215 210 197 170 186 172 126 135 113 108 109 152 175 205 199 186 238 242 234 174 211 273 242 202 171 208 197 210 225 231 233 240 243 233 236 245 249
312 295 283 271 231 168 144 239 225 161 143 130 113 96 8 145 234 241 244 314 4 210 60 42 196 141 155 183 206 212 224 222 36 175 166 181 197 194 182 215 111 253 267 247 258 262 254 186 181 230 209 202 190 141 166 178 141 149 158 139 136 117 144 169 184 199 221 247 245 204 178 203 240 252 163 201 142 190 204 223 226 226 236 241 237 236 242 245
315 304 283 264 148 148 206 261 161 154 143 142 180 126 242 264 196 228 237 106 298 67 356 16 38 48 227 214 218 187 198 218 176 200 184 196 198 196 199 218 168 219 230 217 243 232 240 223 165 235 278 167 178 177 174 171 175 190 182 174 205 208 183 227 174 213 217 232 125 162 185 227 232 256 259 272 192 206 221 230 229 231 230 230 243 245 261 251
327 323 308 265 146 198 222 155 134 137 145 160 141 186 233 192 258 199 245 54 296 26 80 344 36 71 34 320 251 226 198 217 173 209 212 198 201 214 216 216 207 206 233 198 240 241 239 212 182 198 196 201 187 195 163 186 192 199 202 201 203 211 211 231 207 228 252 240 235 158 211 253 290 277 247 243 230 204 213 220 225 231 234 226 229 273 260 238
318 316 279 210 196 208 165 144 138 142 151 160 161 152 213 233 243 131 197 203 246 124 111 263 298 298 300 257 230 43 273 233 219 197 203 196 195 216 217 222 220 211 229 239 221 216 246 208 196 171 220 173 202 204 176 176 177 200 206 206 215 216 210 223 203 214 217 244 180 169 175 215 187 231 42 227 330 258 230 213 233 266 268 260 265 270 267 258
314 290 261 248 231 210 162 153 147 145 145 150 158 203 218 239 266 276 272 285 266 303 297 9 336 318 279 249 207 161 187 292 217 231 203 210 209 211 206 212 213 218 210 232 215 243 235 255 161 186 175 181 205 210 190 155 186 197 200 205 217 217 209 234 226 223 235 204 195 195 215 224 218 94 123 88 252 249 250 228 221 249 253 235 246 252 249 244
310 297 207 233 217 213 168 153 149 137 154 160 195 212 225 201 220 162 260 265 295 297 311 294 272 275 249 252 197 201 176 221 189 215 222 212 220 213 213 202 206 202 204 214 179 227 209 243 151 190 210 202 195 191 190 150 210 179 199 211 208 303 220 237 318 107 29 275 246 158 243 247 280 279 250 226 209 234 179 214 208 236 249 258 258 254 244 227
314 302 251 232 230 185 166 155 155 156 162 177 201 236 217 251 231 264 308 297 338 353 297 311 293 259 109 227 198 190 161 203 243 202 266 205 228 230 229 220 199 202 210 211 231 243 241 257 174 166 196 216 212 208 192 186 187 142 210 204 116 7 337 217 238 200 198 241 243 180 224 244 224 271 199 220 209 214 214 211 201 231 248 251 245 247 245 220
315 286 268 263 229 170 170 165 163 169 170 190 218 228 137 228 173 229 144 261 276 310 329 202 281 27 287 298 268 188 175 195 206 164 253 173 267 202 218 230 216 213 208 215 235 216 231 261 185 208 199 199 199 185 300 264 226 216 210 169 182 162 190 214 222 230 207 226 239 234 233 243 228 231 94 179 209 214 215 225 211 229 232 237 243 249 249 164
291 283 295 254 213 169 168 166 175 165 166 206 224 237 200 212 175 208 208 235 63 5 279 226 241 245 280 276 301 51 133 201 288 235 278 162 232 193 209 200 227 209 216 209 222 237 187 239 249 175 199 141 131 190 210 197 249 276 315 193 165 169 208 194 208 252 226 239 238 248 220 245 216 234 236 218 159 191 210 215 224 233 238 236 238 243 245 207
326 313 259 328 190 159 159 170 167 159 179 216 216 226 89 210 218 218 232 213 233 207 236 256 197 266 220 258 350 288 157 239 321 276 215 308 261 337 319 247 230 208 214 211 221 214 233 188 249 181 189 151 222 193 206 188 200 211 252 201 175 230 3 258 218 210 219 234 234 253 249 234 237 208 219 221 231 198 207 197 206 220 228 232 240 237 219 222
313 250 260 43 139 135 137 119 140 188 206 246 281 251 186 218 150 199 224 209 247 279 263 235 236 223 148 286 233 193 254 227 211 233 213 253 206 294 185 213 280 250 208 214 215 213 235 207 233 215 211 218 211 184 208 210 198 195 184 203 184 185 203 209 229 216 223 227 231 241 249 253 248 164 199 215 219 214 216 220 208 217 225 232 228 217 214 231
319 304 295 144 141 143 143 171 216 197 226 217 226 192 238 205 230 216 198 258 245 252 55 269 251 263 246 242 261 266 247 249 226 243 218 245 206 216 219 105 41 18 313 228 215 206 217 232 229 235 222 218 222 233 258 273 315 241 201 205 191 200 198 213 225 210 214 227 251 250 281 258 189 143 197 198 210 210 211 202 221 217 223 232 228 201 225 231
316 277 269 157 164 159 165 210 189 200 221 251 49 263 219 242 228 220 230 208 249 208 265 228 247 253 247 242 121 220 195 255 223 237 241 225 251 231 188 161 160 13 45 284 250 224 81 217 231 251 260 240 228 230 298 354 290 271 276 300 219 206 199 217 226 223 225 205 223 239 247 257 233 123 179 202 197 206 189 206 218 235 245 256 256 240 233 230
296 286 295 194 171 169 173 202 223 222 228 257 231 253 176 232 198 204 214 206 203 186 220 233 333 221 269 187 209 226 169 271 195 222 241 234 258 227 228 210 188 169 154 255 261 150 211 181 217 233 244 234 231 238 264 208 196 252 236 220 239 246 222 226 12 313 242 205 209 209 239 251 209 176 102 112 179 195 206 203 214 225 236 236 234 235 224 207
290 254 242 323 228 170 189 223 266 247 226 232 226 233 218 221 227 225 211 218 208 230 219 236 222 167 220 194 234 211 223 214 278 211 241 209 254 89 274 225 197 203 192 194 172 351 292 192 193 216 222 228 223 214 213 220 217 210 235 253 221 228 235 235 234 213 240 217 218 229 244 248 230 172 131 154 202 209 209 206 210 222 230 227 230 244 248 208
320 309 344 282 5 292 282 344 334 293 263 248 250 239 219 235 225 217 213 237 203 225 227 250 225 207 225 195 236 224 234 228 215 253 202 230 237 213 200 206 199 212 215 215 192 107 264 283 235 212 222 234 240 246 211 197 161 211 183 209 230 227 229 233 253 236 231 122 236 232 242 256 247 203 180 167 198 212 208 210 211 225 236 241 252 259 254 244
312 252 335 317 228 222 265 338 274 282 274 294 246 158 218 226 220 156 192 242 207 220 236 229 226 217 231 213 239 248 232 231 227 248 233 234 228 232 66 161 204 218 210 211 190 131 223 254 266 278 255 244 249 253 249 206 218 214 211 216 215 220 218 224 226 235 215 244 240 222 235 242 251 249 236 165 200 215 219 211 214 223 227 229 227 248 259 232
288 253 273 91 289 301 251 245 257 273 273 284 268 270 255 233 202 230 180 228 225 201 226 223 215 227 241 239 246 250 235 230 222 234 246 245 265 255 271 224 245 211 197 233 183 194 232 257 253 231 262 274 276 284 283 264 258 251 225 219 214 212 210 221 229 235 234 237 249 237 234 239 249 255 251 228 186 202 213 228 233 220 268 249 242 234 229 221
234 301 275 31 293 301 300 301 300 279 277 260 260 248 269 252 245 215 201 182 217 218 202 245 228 216 217 226 231 249 244 248 242 228 235 240 230 254 263 277 240 232 200 215 176 200 221 244 258 240 258 257 258 253 263 268 256 251 258 253 243 227 218 221 222 226 231 241 243 249 257 259 261 262 264 263 232 204 211 223 133 171 218 221 221 222 220 215
323 358 307 172 234 276 271 275 266 273 273 262 261 221 238 247 253 247 205 183 213 220 200 231 240 218 212 214 221 238 236 225 246 275 218 232 249 209 247 243 280 45 190 202 198 293 205 250 232 241 254 252 241 240 245 246 258 270 262 259 256 255 247 233 239 239 241 245 246 258 261 262 260 274 280 284 274 193 226 208 221 219 216 222 223 221 217 214
328 280 279 295 297 277 256 250 261 273 282 268 259 260 253 257 255 250 251 195 212 194 189 223 230 226 224 219 225 235 243 238 248 246 258 245 254 221 217 258 186 141 301 291 257 269 199 260 259 258 251 257 238 230 237 236 232 237 245 243 256 260 263 257 245 238 235 236 232 233 241 244 243 243 257 260 258 235 200 206 214 232 227 223 224 222 221 220
304 269 263 276 276 281 290 281 269 271 260 260 264 270 262 268 258 259 269 217 216 214 215 220 222 216 230 222 230 232 239 222 243 251 246 261 264 272 223 249 165 215 193 210 180 181 170 279 271 249 254 257 261 235 246 245 245 240 228 234 225 226 228 242 243 255 256 257 248 238 239 237 243 240 243 252 255 255 214 200 213 219 228 229 226 224 218 219